Tracking 28790 objects as of 19-Apr-2024
HD Live streaming from Space Station
objects crossing your sky now

FENGYUN 1C DEB

Track FENGYUN 1C DEB now!
10-day predictions


NORAD ID: 30521
Int'l Code: 1999-025AJK
Perigee: 622.2 km
Apogee: 835.8 km
Inclination: 99.0 °
Period: 99.2 minutes
Semi major axis: 7100 km
RCS: 0.0098 m2 (small)
Launch date: May 10, 1999
Source: People's Republic of China (PRC)
Launch site: Taiyaun Space Center, China (TSC)

Note: This is SATELLITE DEBRIS
Your satellite tracking list
Your tracking list is empty




NASA's NSSDC Master Catalog

Two Line Element Set (TLE):
1 30521U 99025AJK 24110.19407463  .00005619  00000-0  12350-2 0  9992
2 30521  98.9564 195.6300 0150423 267.9602  90.4359 14.51152854908985
Source of the keplerian elements: AFSPC